Wind_Speed
27 27 27 27 27 27 25 23 22 20 20 20 20 20 19 18 17 17 16 15 14 14 13 13 12 11 10 10 9 9 8 8 8 7 7 7 6 6 6 6 6 6 6 7 7 7 6 6 6
28 29 29 29 30 29 26 25 23 22 22 22 22 21 21 20 19 18 17 16 16 16 15 14 14 13 12 11 11 10 10 10 9 9 9 8 8 8 7 7 7 7 7 7 7 7 7 7 7
30 31 31 32 31 29 27 25 25 24 24 24 24 23 22 21 20 20 19 18 18 18 17 16 16 15 14 14 13 12 12 11 11 10 10 10 10 9 9 9 9 9 8 8 8 8 8 8 8
32 33 34 34 33 30 29 28 26 26 26 26 26 25 24 23 22 21 21 20 20 19 19 18 18 17 16 16 15 14 14 13 13 13 12 12 12 11 11 10 10 10 10 10 10 10 10 10 10
34 35 36 36 33 31 31 30 29 29 29 28 28 27 26 25 24 23 22 22 21 21 20 20 19 18 18 17 16 16 15 15 15 15 14 14 14 13 13 12 12 12 12 12 12 12 12 12 12
36 37 38 37 35 34 33 32 32 31 31 31 30 29 28 27 27 26 25 24 23 23 22 21 20 19 19 18 18 17 17 16 16 16 16 16 16 15 14 14 14 13 13 14 14 14 14 14 14
37 38 39 38 37 36 35 35 34 33 33 32 32 32 31 30 29 28 28 27 26 25 24 23 22 21 20 20 19 19 19 18 18 18 18 18 17 17 16 16 15 15 15 16 16 16 16 15 15
38 40 40 40 38 38 38 38 37 35 35 35 35 34 33 32 32 31 30 29 28 27 26 25 25 23 23 22 22 21 21 20 20 19 19 19 19 19 18 18 17 17 17 17 17 17 17 17 17
39 41 41 40 40 39 39 40 39 39 37 38 37 36 35 35 34 33 33 32 31 29 28 27 27 26 25 25 24 23 22 22 21 21 21 21 21 21 20 20 20 19 19 19 19 19 19 18 18
39 41 40 40 41 41 41 42 42 41 40 40 39 39 38 37 36 36 35 34 32 31 30 29 29 28 27 27 26 24 24 23 23 22 22 21 21 21 21 21 21 21 21 20 21 20 20 20 20
40 40 40 41 41 42 42 43 43 43 42 41 41 41 41 40 38 37 37 36 35 33 32 31 30 30 29 28 27 26 26 25 24 23 22 22 22 22 22 22 22 22 22 22 22 22 22 22 22
39 41 41 41 42 43 43 43 44 45 43 43 43 43 42 42 41 39 38 38 37 35 34 33 33 32 31 30 29 28 27 26 25 25 24 23 23 23 23 23 23 23 23 23 23 23 23 23 24
38 40 40 41 42 43 43 44 45 45 44 44 43 43 42 42 41 41 40 39 38 37 36 35 35 34 33 32 31 30 29 28 27 26 26 26 25 25 25 25 25 25 24 25 25 25 25 25 25
37 39 39 40 41 43 44 44 45 45 45 45 44 43 43 42 41 42 42 40 39 39 37 37 36 35 35 34 33 32 31 30 29 28 28 27 27 27 27 27 27 27 27 27 26 26 26 26 27
35 37 38 39 40 42 43 44 45 45 46 45 45 44 44 43 43 42 42 42 40 40 39 38 37 37 36 36 35 34 33 32 31 30 30 29 29 29 28 28 28 28 28 29 29 29 29 29 29
32 35 37 37 39 40 43 43 43 43 45 45 45 45 44 43 43 42 42 42 42 42 41 40 39 39 38 37 36 36 35 34 33 32 32 32 31 31 31 30 30 30 31 31 31 31 31 31 31
31 34 35 36 37 39 41 41 40 41 43 44 44 44 43 42 42 42 42 43 43 43 42 41 41 40 40 39 39 38 37 37 36 35 34 34 34 33 33 33 33 32 32 33 33 33 33 33 33
30 32 33 34 35 37 38 37 36 38 40 42 42 42 42 43 43 42 42 42 42 43 43 42 42 42 41 41 41 40 40 39 38 37 37 36 36 36 36 35 35 34 34 34 35 35 35 35 35
28 31 32 32 33 35 36 35 33 34 37 39 39 40 41 41 43 44 44 43 44 45 44 44 43 43 43 43 43 42 42 41 41 40 39 38 38 38 37 37 36 35 35 35 36 36 37 36 36
26 29 29 29 30 32 33 33 32 33 35 37 38 39 40 40 41 42 43 44 45 45 44 44 45 44 45 44 44 44 43 43 42 42 42 40 39 39 39 39 38 37 37 37 37 38 38 38 38
25 26 26 25 25 28 31 32 32 32 33 35 37 38 39 39 41 41 42 43 44 45 44 45 45 45 45 45 45 44 44 43 43 42 41 41 41 40 39 39 40 39 38 38 39 39 39 39 39
24 24 24 24 25 26 29 31 31 31 33 33 34 36 37 39 39 39 41 43 43 43 43 44 45 45 45 45 45 45 44 44 43 43 43 43 42 42 42 42 41 41 41 40 40 40 41 42 42
23 23 24 24 25 27 29 31 32 32 33 33 33 34 34 37 39 38 38 41 43 43 44 44 43 44 46 46 45 45 45 44 44 44 44 44 44 44 44 44 43 43 43 43 42 43 44 44 44
23 24 24 25 26 27 28 30 32 32 32 32 33 33 33 34 37 37 37 37 39 41 42 43 44 44 45 46 46 46 45 45 45 45 44 45 44 44 44 45 45 45 45 45 45 45 45 45 46
23 23 23 24 24 26 26 28 30 30 31 32 32 33 31 32 34 36 36 35 38 39 40 41 42 44 45 46 47 47 46 45 45 46 45 46 46 45 46 46 47 47 47 47 47 47 48 47 48
23 23 23 23 24 24 25 26 26 27 29 31 33 33 33 32 33 34 35 34 36 37 39 41 43 43 43 44 45 46 46 46 46 46 46 46 47 46 47 47 47 48 48 48 48 48 49 48 48
22 21 22 23 23 24 25 24 23 25 27 30 32 34 35 34 34 35 35 35 36 37 38 40 42 43 43 44 45 46 46 47 46 46 46 45 46 47 47 48 48 48 48 48 48 48 49 49 48
21 21 22 22 23 24 24 22 21 21 23 26 29 31 32 34 34 35 36 36 37 37 37 37 39 40 42 44 44 44 44 44 44 45 45 46 46 46 47 49 48 49 48 48 48 49 49 49 49
21 21 21 22 23 24 24 23 21 20 22 24 26 29 30 31 33 34 35 36 37 37 37 38 39 41 42 43 43 44 44 44 45 44 45 45 45 45 46 48 48 48 49 49 49 49 49 49 49
21 21 21 22 23 24 25 23 21 20 20 23 25 27 29 30 31 33 34 34 36 36 36 37 38 39 41 42 43 44 44 44 44 45 45 46 46 47 46 47 48 49 49 49 50 50 49 49 49
Wind_Direction
246 245 245 244 243 243 244 243 242 242 241 242 242 244 245 243 242 243 243 245 247 249 248 251 252 254 256 255 255 255 256 258 263 265 264 265 269 274 280 285 289 295 299 302 304 306 305 309 312
247 246 245 245 244 243 243 243 243 243 242 242 242 243 244 244 243 244 244 245 246 247 248 251 253 253 254 255 256 256 256 257 261 265 265 266 269 271 274 279 282 285 290 294 298 299 299 302 306
248 247 246 246 244 244 244 242 242 242 242 243 243 244 244 245 245 245 245 246 246 246 247 250 253 254 254 254 256 257 258 258 259 263 264 265 267 269 271 274 276 278 281 285 289 291 293 295 298
248 246 247 246 245 244 244 242 241 241 241 243 245 246 247 247 246 245 245 247 248 247 248 249 251 254 255 255 256 257 259 258 258 260 261 261 262 265 267 270 272 274 277 280 282 285 287 290 293
247 247 247 246 245 244 244 243 242 243 243 243 245 246 247 247 247 246 245 246 248 248 249 249 250 252 254 255 256 257 259 260 258 259 260 260 260 262 264 266 269 271 274 276 278 280 282 285 288
248 248 247 247 246 245 243 243 242 243 244 244 245 246 246 246 247 247 246 247 247 249 249 249 250 252 252 254 256 257 258 259 259 259 260 259 259 259 262 264 267 269 271 272 275 277 279 281 283
250 249 249 248 247 245 243 242 242 243 244 245 245 246 246 246 247 247 247 246 248 249 250 251 250 251 252 253 255 258 258 258 259 259 260 259 259 258 259 262 265 267 268 269 272 274 276 279 281
252 251 250 248 247 246 244 242 242 244 245 245 245 246 246 246 247 247 247 247 247 248 249 250 251 250 251 253 255 257 258 259 258 258 259 258 257 256 258 260 262 264 267 269 271 273 274 277 279
253 252 250 249 248 246 245 244 242 243 245 245 246 246 246 245 245 246 247 247 247 248 248 249 251 251 251 253 255 257 258 258 258 258 259 258 256 255 257 259 260 264 267 268 270 272 274 276 278
254 252 251 250 248 246 245 244 243 243 244 245 246 247 247 246 245 245 246 247 247 248 248 249 250 251 252 253 255 255 256 256 257 257 258 258 257 257 257 259 260 263 265 267 269 271 273 275 277
255 253 251 250 249 247 245 245 244 244 244 246 247 248 248 247 246 244 244 245 246 247 248 248 249 251 251 253 254 253 254 255 256 256 256 257 257 257 257 260 261 263 265 267 268 270 272 274 276
256 254 251 250 250 249 247 245 245 245 246 247 247 248 248 247 246 244 243 244 246 247 247 248 249 250 251 252 252 252 251 252 255 255 254 255 258 258 258 259 261 263 266 268 269 270 272 273 275
256 254 252 250 251 250 247 246 245 245 245 246 245 246 246 247 246 244 243 243 244 245 246 247 249 250 251 251 250 250 250 251 253 254 255 256 258 259 259 260 262 263 265 267 268 269 271 272 274
258 254 252 251 251 251 248 246 246 244 244 244 244 244 244 244 245 244 243 242 242 243 245 247 249 250 250 250 249 248 249 250 252 254 255 257 258 259 260 261 262 264 265 266 268 269 270 273 275
259 255 252 251 252 253 250 247 246 245 244 243 243 243 243 243 243 243 243 242 242 243 245 247 249 250 249 249 248 248 248 250 252 253 255 257 258 259 261 261 261 263 266 266 266 268 269 271 273
259 256 254 253 253 253 251 248 246 245 243 242 242 242 243 243 242 243 243 241 242 244 245 247 249 249 248 248 248 248 249 250 252 254 255 256 258 258 261 262 262 263 265 266 266 267 269 270 272
261 258 257 256 255 254 252 249 245 245 243 241 242 242 242 241 240 243 243 242 243 244 245 246 248 248 248 248 248 250 251 251 252 254 256 256 258 259 261 262 263 264 265 267 267 267 269 270 271
264 261 260 258 257 255 251 249 246 245 243 243 242 243 242 239 240 241 242 241 242 243 244 246 247 248 248 248 249 249 251 252 253 254 256 256 258 260 262 263 265 266 266 267 268 268 268 270 271
268 266 265 261 257 255 250 247 244 245 244 243 242 243 242 240 241 241 242 242 242 243 244 245 247 248 248 249 249 250 250 252 253 254 256 257 259 261 262 263 265 267 268 268 269 270 270 271 272
272 269 266 262 257 254 247 243 243 244 243 243 244 244 243 242 242 242 242 243 243 244 245 245 246 247 248 248 249 249 250 251 254 255 256 257 260 261 262 264 266 268 269 270 271 271 271 272 274
274 272 268 264 257 254 248 242 241 243 243 244 244 244 245 243 243 244 244 244 244 244 245 245 245 246 247 247 248 248 249 250 251 254 257 257 258 259 261 262 265 267 269 270 271 271 272 273 274
274 272 269 264 259 256 252 245 242 244 245 245 244 245 245 243 244 246 245 242 243 244 245 246 245 246 247 247 248 248 249 251 252 253 256 257 258 259 261 263 265 266 267 268 270 271 272 273 274
275 273 271 265 261 257 254 250 245 244 245 246 246 245 246 245 244 246 247 244 244 244 246 246 247 247 248 248 248 249 250 251 252 252 254 257 258 259 261 262 264 265 267 268 269 271 272 272 273
274 271 270 266 262 260 255 252 252 247 245 246 244 244 248 247 245 246 247 246 245 245 246 247 247 247 248 248 247 247 249 250 251 252 253 255 258 260 261 262 264 266 267 269 270 271 272 273 273
274 273 271 268 265 263 258 257 259 253 248 246 246 247 247 248 246 247 248 248 246 247 248 248 248 248 249 249 248 247 248 249 251 252 254 256 258 260 261 263 265 267 269 270 270 272 273 273 273
272 273 272 272 269 264 260 261 262 258 252 248 248 249 248 250 250 248 251 251 249 249 250 251 251 250 249 249 248 248 248 249 250 251 253 256 258 261 262 264 266 268 270 271 272 273 274 274 274
270 270 271 271 271 267 265 267 266 261 255 251 250 251 250 251 253 251 252 254 254 252 251 254 254 251 250 249 249 249 249 249 251 251 252 256 259 261 262 265 267 269 271 272 272 273 273 274 274
271 271 271 271 271 271 268 270 270 266 261 256 252 251 250 251 254 256 256 256 256 254 253 254 252 250 250 250 249 248 249 249 251 252 253 256 259 261 263 264 268 269 270 272 273 274 274 273 273
271 269 268 269 270 272 273 274 274 271 269 265 260 254 255 255 256 258 258 257 256 255 255 252 253 252 251 250 249 248 249 250 252 254 255 257 260 263 266 267 268 270 272 272 273 274 274 274 275
273 269 269 270 271 272 272 275 275 273 275 272 267 262 259 257 258 258 259 259 257 256 255 254 253 253 252 252 252 252 252 253 254 256 258 259 262 263 266 268 269 271 273 274 274 274 274 274 275
Height
5825 5827 5829 5830 5832 5833 5835 5839 5842 5844 5846 5847 5849 5850 5852 5855 5857 5861 5861 5861 5862 5863 5864 5865 5866 5867 5868 5868 5869 5869 5870 5871 5871 5872 5872 5873 5873 5873 5874 5874 5874 5874 5874 5875 5874 5874 5874 5874 5874
5820 5822 5824 5825 5826 5828 5832 5835 5838 5840 5842 5844 5845 5847 5849 5851 5853 5855 5856 5858 5859 5860 5862 5863 5864 5865 5865 5866 5867 5867 5868 5869 5869 5870 5870 5871 5872 5872 5872 5873 5873 5873 5873 5873 5873 5873 5873 5873 5873
5814 5816 5817 5818 5820 5824 5828 5831 5834 5836 5838 5839 5841 5843 5845 5848 5850 5851 5853 5854 5856 5858 5859 5860 5861 5862 5863 5864 5865 5865 5866 5866 5867 5868 5868 5869 5870 5870 5870 5871 5871 5871 5871 5872 5872 5872 5872 5871 5871
5808 5809 5810 5812 5815 5820 5822 5826 5828 5830 5832 5835 5837 5839 5841 5844 5846 5847 5849 5851 5852 5854 5855 5857 5858 5859 5860 5861 5862 5862 5863 5864 5864 5865 5866 5866 5867 5868 5868 5868 5869 5869 5869 5869 5870 5870 5870 5870 5870
5800 5801 5802 5804 5809 5814 5817 5819 5822 5824 5826 5829 5832 5834 5837 5839 5841 5843 5845 5847 5849 5850 5852 5853 5854 5855 5856 5857 5858 5859 5860 5861 5861 5862 5863 5863 5864 5865 5865 5866 5866 5867 5867 5867 5867 5867 5868 5867 5867
5792 5793 5794 5797 5803 5808 5811 5813 5816 5818 5820 5823 5826 5829 5831 5834 5836 5838 5840 5842 5844 5846 5847 5849 5850 5852 5853 5853 5854 5855 5856 5857 5858 5859 5859 5860 5861 5862 5862 5863 5863 5864 5864 5864 5865 5865 5865 5865 5865
5784 5785 5786 5790 5795 5800 5804 5806 5809 5811 5814 5817 5819 5822 5825 5828 5831 5833 5835 5837 5839 5841 5843 5844 5846 5847 5848 5849 5850 5851 5852 5853 5854 5854 5855 5856 5857 5858 5858 5859 5860 5861 5861 5861 5861 5862 5862 5862 5862
5774 5776 5778 5782 5787 5791 5795 5798 5801 5804 5806 5809 5812 5815 5819 5822 5824 5827 5829 5831 5833 5836 5837 5839 5841 5842 5843 5845 5846 5846 5847 5848 5849 5849 5850 5851 5852 5853 5854 5855 5856 5857 5857 5857 5858 5858 5858 5858 5859
5765 5767 5769 5773 5778 5782 5786 5789 5793 5796 5798 5801 5804 5808 5811 5814 5817 5820 5822 5825 5827 5829 5831 5833 5835 5837 5838 5839 5840 5841 5842 5843 5843 5844 5845 5846 5847 5848 5849 5850 5852 5852 5853 5853 5854 5854 5854 5855 5855
5755 5757 5761 5765 5768 5772 5776 5779 5783 5787 5790 5792 5796 5799 5802 5805 5808 5812 5815 5818 5820 5823 5825 5827 5829 5831 5832 5833 5834 5835 5836 5837 5838 5839 5840 5841 5842 5843 5844 5845 5846 5847 5848 5849 5849 5850 5850 5850 5850
5745 5748 5751 5754 5757 5760 5764 5768 5772 5776 5780 5784 5787 5790 5793 5796 5800 5803 5806 5809 5812 5815 5818 5820 5822 5824 5825 5827 5828 5829 5831 5832 5833 5833 5835 5835 5836 5838 5839 5840 5841 5842 5843 5844 5845 5845 5845 5846 5846
5736 5738 5740 5744 5746 5749 5753 5756 5760 5764 5770 5773 5776 5779 5782 5786 5790 5793 5797 5801 5804 5807 5810 5812 5814 5817 5818 5820 5821 5823 5824 5826 5827 5828 5829 5830 5831 5832 5833 5835 5836 5837 5838 5839 5839 5840 5840 5841 5841
5725 5728 5730 5732 5735 5738 5741 5744 5748 5753 5757 5760 5763 5766 5770 5774 5779 5783 5787 5791 5795 5798 5801 5804 5807 5809 5811 5812 5814 5816 5818 5819 5821 5822 5823 5825 5826 5827 5828 5829 5830 5831 5832 5833 5833 5834 5834 5835 5835
5715 5717 5720 5722 5724 5727 5729 5733 5736 5742 5744 5748 5752 5756 5760 5764 5768 5772 5777 5781 5785 5789 5793 5796 5798 5801 5803 5805 5807 5809 5811 5813 5814 5816 5817 5819 5820 5821 5822 5823 5824 5825 5825 5826 5827 5827 5828 5828 5829
5706 5708 5710 5712 5714 5716 5719 5722 5726 5730 5733 5737 5742 5746 5750 5753 5758 5762 5767 5772 5776 5780 5784 5787 5790 5792 5795 5797 5799 5801 5803 5805 5807 5809 5810 5812 5814 5815 5815 5816 5817 5818 5818 5819 5820 5820 5821 5821 5822
5698 5699 5701 5704 5704 5706 5709 5712 5716 5718 5721 5726 5731 5735 5739 5743 5748 5752 5756 5761 5766 5770 5774 5777 5780 5783 5786 5788 5791 5794 5796 5798 5800 5802 5803 5805 5806 5807 5809 5809 5810 5811 5811 5812 5812 5813 5813 5814 5814
5690 5691 5692 5695 5695 5697 5698 5702 5707 5708 5711 5716 5721 5725 5729 5734 5738 5742 5746 5751 5756 5760 5764 5768 5771 5774 5777 5780 5783 5785 5788 5790 5792 5794 5796 5797 5799 5800 5801 5802 5803 5803 5804 5804 5805 5805 5806 5806 5807
5684 5684 5685 5686 5687 5687 5689 5693 5698 5699 5702 5707 5711 5716 5720 5725 5730 5733 5737 5741 5746 5751 5754 5758 5762 5765 5768 5771 5774 5777 5779 5782 5784 5786 5788 5789 5791 5792 5793 5794 5795 5796 5796 5796 5796 5797 5797 5798 5798
5677 5677 5677 5678 5678 5678 5680 5684 5689 5692 5694 5698 5703 5707 5711 5716 5720 5723 5727 5732 5736 5741 5745 5749 5752 5755 5758 5762 5765 5768 5771 5773 5776 5777 5779 5781 5782 5784 5785 5786 5787 5787 5788 5788 5788 5788 5789 5789 5790
5671 5670 5670 5671 5670 5671 5673 5677 5682 5684 5688 5691 5695 5698 5702 5706 5710 5714 5718 5722 5726 5731 5735 5739 5742 5745 5749 5752 5755 5759 5762 5764 5767 5769 5770 5772 5774 5775 5776 5777 5778 5779 5779 5780 5779 5780 5780 5781 5781
5666 5665 5665 5665 5665 5665 5666 5670 5675 5678 5681 5684 5688 5691 5694 5697 5701 5705 5708 5712 5716 5720 5724 5728 5731 5735 5738 5741 5745 5748 5751 5754 5756 5759 5761 5763 5765 5766 5767 5769 5769 5770 5770 5770 5770 5770 5771 5771 5771
5662 5661 5660 5659 5659 5660 5661 5661 5669 5671 5674 5677 5681 5684 5686 5689 5692 5695 5698 5702 5706 5710 5713 5716 5720 5723 5727 5730 5733 5737 5740 5744 5747 5750 5752 5754 5755 5757 5758 5759 5760 5760 5761 5761 5761 5761 5761 5761 5761
5658 5656 5655 5655 5654 5654 5655 5655 5661 5664 5667 5670 5674 5676 5679 5681 5683 5686 5689 5692 5696 5700 5703 5705 5708 5712 5715 5718 5722 5726 5730 5733 5737 5740 5742 5744 5745 5747 5748 5749 5750 5751 5751 5751 5751 5751 5752 5751 5751
5652 5652 5651 5649 5648 5649 5650 5649 5652 5657 5661 5664 5667 5669 5671 5673 5675 5678 5680 5683 5686 5689 5692 5695 5697 5700 5704 5707 5710 5714 5718 5722 5725 5729 5731 5734 5735 5737 5737 5738 5740 5740 5740 5741 5741 5741 5741 5741 5740
5648 5647 5646 5645 5643 5644 5646 5644 5648 5652 5655 5657 5660 5662 5664 5666 5668 5670 5672 5674 5677 5679 5681 5683 5686 5689 5692 5695 5698 5702 5707 5711 5715 5718 5720 5723 5725 5726 5727 5728 5728 5729 5730 5730 5730 5730 5729 5729 5729
5643 5643 5642 5641 5640 5641 5641 5640 5645 5647 5648 5650 5653 5655 5657 5658 5660 5662 5664 5666 5668 5670 5671 5673 5675 5678 5681 5683 5687 5691 5695 5699 5703 5706 5709 5712 5714 5715 5716 5717 5717 5718 5718 5719 5718 5718 5718 5717 5717
5638 5638 5638 5637 5636 5636 5636 5638 5641 5641 5641 5643 5645 5647 5649 5651 5652 5654 5655 5657 5658 5660 5661 5663 5664 5667 5670 5673 5676 5680 5684 5688 5691 5694 5697 5700 5702 5704 5705 5706 5706 5706 5706 5706 5706 5706 5706 5705 5704
5635 5634 5633 5632 5631 5631 5632 5634 5636 5636 5636 5637 5639 5640 5642 5643 5645 5646 5647 5648 5649 5650 5652 5653 5654 5657 5659 5662 5665 5669 5673 5677 5680 5683 5686 5688 5690 5692 5693 5693 5694 5694 5694 5694 5694 5693 5693 5692 5692
5631 5630 5629 5628 5628 5628 5628 5632 5632 5631 5631 5632 5633 5634 5635 5636 5638 5639 5639 5640 5641 5642 5642 5643 5646 5648 5650 5652 5655 5659 5662 5666 5669 5672 5674 5676 5678 5680 5681 5681 5682 5682 5682 5682 5681 5680 5680 5679 5679
5626 5626 5625 5625 5625 5624 5623 5629 5628 5627 5626 5626 5627 5627 5628 5629 5630 5631 5632 5632 5632 5633 5634 5635 5637 5639 5641 5643 5646 5649 5653 5656 5659 5661 5663 5665 5666 5668 5668 5669 5670 5670 5669 5669 5668 5668 5667 5666 5666